Location: Elbart
(49.6135°N, 11.9134°E)
Time: 03:02:37
(UTC+00:00)

Cosmos 1140 Rocket - Pass Details

Date: 09 April 2020
Orbit: 745 x 767 km, 74.1° (Epoch: 26 May)

Event Time Altitude Azimuth Distance (km) Brightness Sun altitude
Rises 18:24:28 0° 175° (S) 3,201 6.5 -5.1°
Reaches altitude 10° 18:27:00 10° 166° (SSE) 2,277 5.6 -5.5°
Maximum altitude 18:31:37 34° 102° (ESE) 1,220 4.1 -6.2°
Drops below altitude 10° 18:36:15 10° 39° (NE) 2,280 5.8 -6.9°
Sets 18:38:47 0° 30° (NNE) 3,207 6.6 -7.3°
